Time,TemperatureF,DewpointF,PressureIn,WindDirection,WindDirectionDegrees,WindSpeedMPH,WindSpeedGustMPH,Humidity,HourlyPrecipIn,Conditions,Clouds,dailyrainin,SolarRadiationWatts/m^2,SoftwareType,DateUTC
2013-03-10 00:51:00,33.0,21.0,-100.00,SSW,204,7.0,10.0,60,-99.99,,,0.00,1.000000,,2013-03-10 08:51:00,
2013-03-10 01:01:00,33.0,21.0,-100.00,SSW,204,7.0,10.0,60,-99.99,,,0.00,1.000000,,2013-03-10 09:01:00,
2013-03-10 03:52:00,31.0,21.0,-100.00,SSW,206,8.0,14.0,67,-99.99,,,0.00,1.000000,,2013-03-10 10:52:00,
2013-03-10 04:01:00,31.0,21.0,-100.00,SSW,206,8.0,14.0,67,-99.99,,,0.00,1.000000,,2013-03-10 11:01:00,
2013-03-10 07:52:00,27.0,20.0,-100.00,SSW,198,8.0,15.0,73,-99.99,,,0.00,1.000000,,2013-03-10 14:52:00,
2013-03-10 08:01:00,27.0,20.0,-100.00,SSW,198,8.0,15.0,73,-99.99,,,0.00,1.000000,,2013-03-10 15:01:00,
2013-03-10 08:52:00,27.0,19.0,-100.00,SSW,193,8.0,13.0,72,-99.99,,,0.00,26.000000,,2013-03-10 15:52:00,
2013-03-10 09:52:00,31.0,20.0,-100.00,SSW,197,9.0,13.0,63,0.00,,,0.00,93.000000,,2013-03-10 16:52:00,
2013-03-10 10:01:00,31.0,20.0,-100.00,SSW,197,9.0,13.0,63,0.00,,,0.00,93.000000,,2013-03-10 17:01:00,
2013-03-10 10:11:00,31.0,20.0,-100.00,SSW,197,9.0,13.0,63,0.00,,,0.00,93.000000,,2013-03-10 17:11:00,
2013-03-10 10:21:00,31.0,20.0,-100.00,SSW,197,9.0,13.0,63,0.00,,,0.00,93.000000,,2013-03-10 17:21:00,
2013-03-10 10:51:00,37.0,19.0,-100.00,SSW,199,8.0,14.0,48,0.00,,,0.00,246.000000,,2013-03-10 17:51:00,
2013-03-10 11:01:00,37.0,19.0,-100.00,SSW,199,8.0,14.0,48,0.00,,,0.00,246.000000,,2013-03-10 18:01:00,
2013-03-10 11:11:00,37.0,19.0,-100.00,SSW,199,8.0,14.0,48,0.00,,,0.00,246.000000,,2013-03-10 18:11:00,
2013-03-10 11:21:00,37.0,19.0,-100.00,SSW,199,8.0,14.0,48,0.00,,,0.00,246.000000,,2013-03-10 18:21:00,
2013-03-10 11:52:00,46.0,16.0,-100.00,SSW,197,6.0,13.0,29,0.00,,,0.00,375.000000,,2013-03-10 18:52:00,
2013-03-10 12:01:00,46.0,16.0,-100.00,SSW,197,6.0,13.0,29,0.00,,,0.00,375.000000,,2013-03-10 19:01:00,
2013-03-10 12:11:00,46.0,16.0,-100.00,SSW,197,6.0,13.0,29,0.00,,,0.00,375.000000,,2013-03-10 19:11:00,
2013-03-10 12:21:00,46.0,16.0,-100.00,SSW,197,6.0,13.0,29,0.00,,,0.00,375.000000,,2013-03-10 19:21:00,
2013-03-10 12:42:00,52.0,9.0,-100.00,SSW,195,5.0,10.0,17,0.00,,,0.00,560.000000,,2013-03-10 19:42:00,
2013-03-10 12:53:00,52.0,9.0,-100.00,SSW,195,5.0,10.0,17,0.00,,,0.00,560.000000,,2013-03-10 19:53:00,
2013-03-10 13:53:00,53.0,12.0,-100.00,SSW,196,6.0,11.0,19,0.00,,,0.00,543.000000,,2013-03-10 20:53:00,
2013-03-10 14:02:00,53.0,12.0,-100.00,SSW,196,6.0,11.0,19,0.00,,,0.00,543.000000,,2013-03-10 21:02:00,
2013-03-10 14:12:00,53.0,12.0,-100.00,SSW,196,6.0,11.0,19,0.00,,,0.00,543.000000,,2013-03-10 21:12:00,
2013-03-10 14:22:00,53.0,12.0,-100.00,SSW,196,6.0,11.0,19,0.00,,,0.00,543.000000,,2013-03-10 21:22:00,
2013-03-10 14:52:00,58.0,24.0,-100.00,SW,214,9.0,14.0,27,0.00,,,0.00,670.000000,,2013-03-10 21:52:00,
2013-03-10 15:02:00,58.0,24.0,-100.00,SW,214,9.0,14.0,27,0.00,,,0.00,670.000000,,2013-03-10 22:02:00,
2013-03-10 15:12:00,58.0,24.0,-100.00,SW,214,9.0,14.0,27,0.00,,,0.00,670.000000,,2013-03-10 22:12:00,
2013-03-10 15:22:00,58.0,24.0,-100.00,SW,214,9.0,14.0,27,0.00,,,0.00,670.000000,,2013-03-10 22:22:00,
2013-03-10 15:43:00,54.0,30.0,-100.00,SW,231,8.0,18.0,40,0.00,,,0.00,425.000000,,2013-03-10 22:43:00,
2013-03-10 15:53:00,54.0,30.0,-100.00,SW,231,8.0,18.0,40,0.00,,,0.00,425.000000,,2013-03-10 22:53:00,
2013-03-10 16:02:00,54.0,30.0,-100.00,SW,231,8.0,18.0,40,0.00,,,0.00,425.000000,,2013-03-10 23:02:00,
2013-03-10 16:12:00,54.0,30.0,-100.00,SW,231,8.0,18.0,40,0.00,,,0.00,425.000000,,2013-03-10 23:12:00,
2013-03-10 16:21:00,54.0,30.0,-100.00,SW,231,8.0,18.0,40,0.00,,,0.00,425.000000,,2013-03-10 23:21:00,
2013-03-10 17:43:00,53.0,31.0,-100.00,SSW,212,7.0,12.0,42,-99.99,,,0.00,234.000000,,2013-03-11 00:43:00,
2013-03-10 17:53:00,53.0,31.0,-100.00,SSW,212,7.0,12.0,42,-99.99,,,0.00,234.000000,,2013-03-11 00:53:00,
2013-03-10 18:02:00,53.0,31.0,-100.00,SSW,212,7.0,12.0,42,-99.99,,,0.00,234.000000,,2013-03-11 01:02:00,
2013-03-10 18:12:00,53.0,31.0,-100.00,SSW,212,7.0,12.0,42,-99.99,,,0.00,234.000000,,2013-03-11 01:12:00,
2013-03-10 18:22:00,53.0,31.0,-100.00,SSW,212,7.0,12.0,42,-99.99,,,0.00,234.000000,,2013-03-11 01:22:00,
2013-03-10 18:43:00,48.0,30.0,-100.00,SSW,211,5.0,12.0,49,0.00,,,0.00,74.000000,,2013-03-11 01:43:00,
2013-03-10 18:53:00,48.0,30.0,-100.00,SSW,211,5.0,12.0,49,0.00,,,0.00,74.000000,,2013-03-11 01:53:00,
2013-03-10 19:02:00,48.0,30.0,-100.00,SSW,211,5.0,12.0,49,0.00,,,0.00,74.000000,,2013-03-11 02:02:00,
2013-03-10 19:12:00,48.0,30.0,-100.00,SSW,211,5.0,12.0,49,0.00,,,0.00,74.000000,,2013-03-11 02:12:00,
2013-03-10 19:21:00,48.0,30.0,-100.00,SSW,211,5.0,12.0,49,0.00,,,0.00,74.000000,,2013-03-11 02:21:00,
2013-03-10 19:42:00,45.0,31.0,-100.00,SSW,200,6.0,11.0,57,0.00,,,0.00,12.000000,,2013-03-11 02:42:00,
2013-03-10 19:52:00,45.0,31.0,-100.00,SSW,200,6.0,11.0,57,0.00,,,0.00,12.000000,,2013-03-11 02:52:00,
2013-03-10 20:02:00,45.0,31.0,-100.00,SSW,200,6.0,11.0,57,0.00,,,0.00,12.000000,,2013-03-11 03:02:00,
2013-03-10 20:12:00,45.0,31.0,-100.00,SSW,200,6.0,11.0,57,0.00,,,0.00,12.000000,,2013-03-11 03:12:00,
2013-03-10 20:21:00,45.0,31.0,-100.00,SSW,200,6.0,11.0,57,0.00,,,0.00,12.000000,,2013-03-11 03:21:00,
2013-03-10 20:53:00,42.0,31.0,-100.00,SSW,195,8.0,14.0,65,0.00,,,0.00,1.000000,,2013-03-11 03:53:00,
2013-03-10 21:02:00,42.0,31.0,-100.00,SSW,195,8.0,14.0,65,0.00,,,0.00,1.000000,,2013-03-11 04:02:00,
2013-03-10 21:12:00,42.0,31.0,-100.00,SSW,195,8.0,14.0,65,0.00,,,0.00,1.000000,,2013-03-11 04:12:00,
2013-03-10 21:22:00,42.0,31.0,-100.00,SSW,195,8.0,14.0,65,0.00,,,0.00,1.000000,,2013-03-11 04:22:00,
2013-03-10 21:53:00,40.0,30.0,-100.00,SSW,202,8.0,14.0,68,0.00,,,0.00,1.000000,,2013-03-11 04:53:00,
2013-03-10 22:03:00,40.0,30.0,-100.00,SSW,202,8.0,14.0,68,0.00,,,0.00,1.000000,,2013-03-11 05:03:00,
2013-03-10 22:11:00,40.0,30.0,-100.00,SSW,202,8.0,14.0,68,0.00,,,0.00,1.000000,,2013-03-11 05:11:00,
2013-03-10 22:21:00,40.0,30.0,-100.00,SSW,202,8.0,14.0,68,0.00,,,0.00,1.000000,,2013-03-11 05:21:00,
2013-03-10 22:52:00,40.0,33.0,-100.00,SSW,203,7.0,12.0,75,0.00,,,0.00,1.000000,,2013-03-11 05:52:00,
2013-03-10 23:02:00,40.0,33.0,-100.00,SSW,203,7.0,12.0,75,0.00,,,0.00,1.000000,,2013-03-11 06:02:00,
2013-03-10 23:11:00,40.0,33.0,-100.00,SSW,203,7.0,12.0,75,0.00,,,0.00,1.000000,,2013-03-11 06:11:00,
2013-03-10 23:22:00,40.0,33.0,-100.00,SSW,203,7.0,12.0,75,0.00,,,0.00,1.000000,,2013-03-11 06:22:00,
2013-03-10 23:42:00,38.0,32.0,-100.00,SSW,192,6.0,14.0,80,0.00,,,0.00,1.000000,,2013-03-11 06:42:00,
2013-03-10 23:53:00,38.0,32.0,-100.00,SSW,192,6.0,14.0,80,0.00,,,0.00,1.000000,,2013-03-11 06:53:00,